• In Belarus
  • List of Countries
  • For 7 days
  • Water Temperature
  • Satellite Maps
  • Weather Map
  • Weather Widgets
  • user-avatar
    Login

    Hourly Weather Viana do Castelo

    Today, 22 April, Monday

    Time Temperature Precipitation Wind Pressure Humidity
    00:00 +14°C° 0 mm 2 mps 751 mmHg 72%
    01:00 +13°C° 0 mm 2 mps 750 mmHg 74%
    02:00 +12°C° 0 mm 2 mps 750 mmHg 76%
    03:00 +12°C° 0 mm 1 mps 749 mmHg 77%
    04:00 +12°C° 0 mm 1 mps 749 mmHg 78%
    05:00 +12°C° 0 mm 1 mps 748 mmHg 79%
    06:00 +14°C° 0 mm 1 mps 748 mmHg 73%
    07:00 +16°C° 0 mm 1 mps 748 mmHg 66%
    08:00 +19°C° 0 mm 1 mps 747 mmHg 60%
    09:00 +18°C° 0 mm 2 mps 747 mmHg 59%
    10:00 +19°C° 0 mm 3 mps 746 mmHg 57%
    11:00 +19°C° 0 mm 4 mps 746 mmHg 56%
    12:00 +19°C° 0 mm 4 mps 745 mmHg 58%
    13:00 +17°C° 0 mm 5 mps 744 mmHg 61%
    14:00 +17°C° 0 mm 6 mps 744 mmHg 63%
    15:00 +16°C° 1.5 mm 5 mps 743 mmHg 73%
    16:00 +14°C° 1.5 mm 5 mps 743 mmHg 83%
    17:00 +13°C° 1.5 mm 5 mps 743 mmHg 92%
    18:00 +12°C° 2.6 mm 5 mps 743 mmHg 93%
    19:00 +11°C° 2.6 mm 4 mps 743 mmHg 93%
    20:00 +11°C° 2.6 mm 4 mps 743 mmHg 93%
    21:00 +10°C° 0.6 mm 4 mps 744 mmHg 91%
    22:00 +9°C° 0.6 mm 5 mps 744 mmHg 88%
    23:00 +8°C° 0.6 mm 5 mps 744 mmHg 86%

    Tomorrow, 23 April, Tuesday

    Time Temperature Precipitation Wind Pressure Humidity
    00:00 +8°C° 0.2 mm 5 mps 744 mmHg 86%
    01:00 +7°C° 0.2 mm 4 mps 744 mmHg 86%
    02:00 +7°C° 0.2 mm 4 mps 744 mmHg 87%
    03:00 +7°C° 0.4 mm 4 mps 744 mmHg 87%
    04:00 +7°C° 0.4 mm 4 mps 744 mmHg 86%
    05:00 +7°C° 0.4 mm 4 mps 744 mmHg 86%
    06:00 +7°C° 0.7 mm 4 mps 744 mmHg 84%
    07:00 +8°C° 0.7 mm 4 mps 745 mmHg 82%
    08:00 +10°C° 0.7 mm 4 mps 745 mmHg 79%
    09:00 +11°C° 0.7 mm 4 mps 745 mmHg 77%
    10:00 +11°C° 0.7 mm 4 mps 745 mmHg 75%
    11:00 +11°C° 0.7 mm 4 mps 745 mmHg 73%
    12:00 +12°C° 0.5 mm 4 mps 745 mmHg 72%
    13:00 +12°C° 0.5 mm 4 mps 745 mmHg 71%
    14:00 +12°C° 0.5 mm 5 mps 745 mmHg 70%
    15:00 +10°C° 0.6 mm 5 mps 745 mmHg 73%
    16:00 +10°C° 0.6 mm 5 mps 745 mmHg 75%
    17:00 +9°C° 0.6 mm 5 mps 745 mmHg 78%
    18:00 +9°C° 1 mm 5 mps 746 mmHg 81%
    19:00 +8°C° 1 mm 5 mps 746 mmHg 84%
    20:00 +7°C° 1 mm 4 mps 747 mmHg 86%
    21:00 +7°C° 1.1 mm 5 mps 747 mmHg 87%
    22:00 +8°C° 1.1 mm 5 mps 747 mmHg 88%
    23:00 +8°C° 1.1 mm 5 mps 747 mmHg 88%

    Day after tomorrow, 24 April, Wednesday

    Time Temperature Precipitation Wind Pressure Humidity
    00:00 +8°C° 1.8 mm 6 mps 746 mmHg 90%
    01:00 +6°C° 1.8 mm 7 mps 745 mmHg 92%
    02:00 +6°C° 1.8 mm 8 mps 744 mmHg 94%
    03:00 +7°C° 5.6 mm 9 mps 743 mmHg 94%
    04:00 +8°C° 5.6 mm 10 mps 742 mmHg 95%
    05:00 +9°C° 5.6 mm 10 mps 742 mmHg 96%
    06:00 +11°C° 3.2 mm 10 mps 742 mmHg 94%
    07:00 +11°C° 3.2 mm 9 mps 742 mmHg 92%
    08:00 +12°C° 3.2 mm 8 mps 742 mmHg 91%
    09:00 +12°C° 0.6 mm 8 mps 743 mmHg 88%
    10:00 +13°C° 0.6 mm 9 mps 743 mmHg 86%
    11:00 +13°C° 0.6 mm 10 mps 743 mmHg 83%
    12:00 +13°C° 0.6 mm 10 mps 744 mmHg 83%
    13:00 +12°C° 0.6 mm 9 mps 744 mmHg 82%
    14:00 +12°C° 0.6 mm 9 mps 744 mmHg 82%
    15:00 +11°C° 0.5 mm 9 mps 745 mmHg 83%
    16:00 +10°C° 0.5 mm 8 mps 745 mmHg 83%
    17:00 +10°C° 0.5 mm 8 mps 746 mmHg 84%
    18:00 +9°C° 0.7 mm 8 mps 747 mmHg 84%
    19:00 +9°C° 0.7 mm 8 mps 747 mmHg 84%
    20:00 +9°C° 0.7 mm 8 mps 748 mmHg 84%
    21:00 +9°C° 1 mm 8 mps 749 mmHg 85%
    22:00 +7°C° 1 mm 8 mps 749 mmHg 85%
    23:00 +7°C° 1 mm 8 mps 749 mmHg 85%

    25 April, Thursday

    Time Temperature Precipitation Wind Pressure Humidity
    00:00 +7°C° 0.9 mm 8 mps 749 mmHg 85%
    01:00 +7°C° 0.9 mm 8 mps 749 mmHg 85%
    02:00 +7°C° 0.9 mm 8 mps 750 mmHg 85%
    03:00 +7°C° 0.7 mm 8 mps 750 mmHg 85%
    04:00 +7°C° 0.7 mm 8 mps 750 mmHg 85%
    05:00 +7°C° 0.7 mm 8 mps 750 mmHg 85%
    06:00 +9°C° 0.7 mm 8 mps 751 mmHg 84%
    07:00 +9°C° 0.7 mm 8 mps 752 mmHg 84%
    08:00 +9°C° 0.7 mm 8 mps 753 mmHg 83%
    09:00 +10°C° 0.7 mm 8 mps 753 mmHg 82%
    10:00 +11°C° 0.7 mm 8 mps 754 mmHg 81%
    11:00 +11°C° 0.7 mm 8 mps 755 mmHg 79%
    12:00 +11°C° 0.5 mm 7 mps 756 mmHg 79%
    13:00 +11°C° 0.5 mm 7 mps 756 mmHg 79%
    14:00 +11°C° 0.5 mm 7 mps 757 mmHg 79%
    15:00 +11°C° 0.3 mm 6 mps 758 mmHg 80%
    16:00 +11°C° 0.3 mm 6 mps 758 mmHg 81%
    17:00 +12°C° 0.3 mm 5 mps 759 mmHg 82%
    18:00 +10°C° 0.1 mm 5 mps 760 mmHg 84%
    19:00 +11°C° 0.1 mm 4 mps 761 mmHg 87%
    20:00 +10°C° 0.1 mm 3 mps 762 mmHg 89%
    21:00 +10°C° 0.1 mm 3 mps 762 mmHg 89%
    22:00 +10°C° 0.1 mm 3 mps 763 mmHg 90%
    23:00 +10°C° 0.1 mm 3 mps 763 mmHg 90%

    26 April, Friday

    Time Temperature Precipitation Wind Pressure Humidity
    00:00 +9°C° 0 mm 2 mps 763 mmHg 90%
    01:00 +9°C° 0 mm 2 mps 764 mmHg 90%
    02:00 +9°C° 0 mm 2 mps 764 mmHg 89%
    03:00 +10°C° 0 mm 1 mps 764 mmHg 89%
    04:00 +9°C° 0 mm 1 mps 764 mmHg 89%
    05:00 +9°C° 0 mm 1 mps 764 mmHg 89%
    06:00 +11°C° 0 mm 1 mps 765 mmHg 84%
    07:00 +13°C° 0 mm 1 mps 765 mmHg 79%
    08:00 +14°C° 0 mm 1 mps 766 mmHg 73%
    09:00 +15°C° 0 mm 2 mps 766 mmHg 68%
    10:00 +16°C° 0 mm 2 mps 766 mmHg 62%
    11:00 +17°C° 0 mm 3 mps 766 mmHg 56%
    12:00 +17°C° 0 mm 3 mps 766 mmHg 57%
    13:00 +17°C° 0 mm 3 mps 766 mmHg 57%
    14:00 +17°C° 0 mm 3 mps 765 mmHg 58%
    15:00 +16°C° 0 mm 3 mps 765 mmHg 61%
    16:00 +16°C° 0 mm 3 mps 765 mmHg 64%
    17:00 +15°C° 0 mm 2 mps 765 mmHg 67%
    18:00 +14°C° 0 mm 2 mps 766 mmHg 74%
    19:00 +12°C° 0 mm 2 mps 766 mmHg 80%
    20:00 +10°C° 0 mm 2 mps 767 mmHg 87%
    21:00 +10°C° 0 mm 2 mps 767 mmHg 88%
    22:00 +9°C° 0 mm 2 mps 767 mmHg 88%
    23:00 +9°C° 0 mm 2 mps 767 mmHg 89%

    27 April, Saturday

    Time Temperature Precipitation Wind Pressure Humidity
    00:00 +9°C° 0 mm 2 mps 766 mmHg 88%
    01:00 +9°C° 0 mm 2 mps 766 mmHg 87%
    02:00 +9°C° 0 mm 3 mps 766 mmHg 86%
    03:00 +9°C° 0 mm 3 mps 765 mmHg 84%
    04:00 +9°C° 0 mm 3 mps 765 mmHg 82%
    05:00 +9°C° 0 mm 3 mps 765 mmHg 80%
    06:00 +12°C° 0 mm 3 mps 765 mmHg 72%
    07:00 +15°C° 0 mm 2 mps 765 mmHg 63%
    08:00 +18°C° 0 mm 2 mps 765 mmHg 55%
    09:00 +20°C° 0 mm 2 mps 765 mmHg 51%
    10:00 +21°C° 0 mm 3 mps 765 mmHg 47%
    11:00 +24°C° 0 mm 3 mps 765 mmHg 43%
    12:00 +23°C° 0 mm 4 mps 764 mmHg 46%
    13:00 +23°C° 0 mm 5 mps 764 mmHg 48%
    14:00 +23°C° 0 mm 5 mps 764 mmHg 51%
    15:00 +22°C° 0 mm 5 mps 763 mmHg 57%
    16:00 +21°C° 0 mm 5 mps 763 mmHg 63%
    17:00 +20°C° 0 mm 5 mps 763 mmHg 69%
    18:00 +19°C° 0 mm 5 mps 763 mmHg 73%
    19:00 +17°C° 0 mm 5 mps 764 mmHg 77%
    20:00 +16°C° 0 mm 5 mps 764 mmHg 82%
    21:00 +15°C° 0 mm 4 mps 764 mmHg 81%
    22:00 +15°C° 0 mm 4 mps 764 mmHg 80%
    23:00 +15°C° 0 mm 4 mps 763 mmHg 79%
    Show more